Theta_e
326 325 324 324 324 323 322 321 321 322 321 319 317 316 317 316 317 317 317 317 317 316 316 316 316 317 318 318 319 319 319 320 323 325 328 331 333 333 332 332 332 332 331 331 331 332 335 337 338 338 340 343 343 341 340 338 338 338 338 337 336 336 337 336 335 334 334 332 331 331 332 333 334 335
326 325 325 325 325 324 323 322 322 322 322 320 318 317 317 317 317 317 317 317 317 317 317 316 317 317 318 318 318 319 319 319 320 322 325 328 329 332 332 332 332 333 332 331 331 331 333 335 337 337 339 342 343 342 342 341 339 338 338 338 338 336 336 336 335 334 334 332 331 331 330 330 330 332
327 326 326 326 326 325 324 323 323 323 322 321 319 318 317 317 317 318 317 317 317 317 317 316 317 317 318 318 318 319 319 319 319 320 323 326 327 330 331 333 334 334 333 332 331 332 332 333 336 338 339 341 342 342 343 343 341 338 337 337 338 337 336 335 335 334 334 333 332 332 331 330 330 329
328 328 327 327 327 327 326 324 323 323 323 322 320 319 318 317 318 318 318 318 318 317 317 316 317 317 317 317 318 318 319 319 320 319 321 324 327 328 330 332 333 334 334 332 332 333 334 334 336 340 341 341 341 342 344 344 344 342 341 339 339 337 336 336 335 334 334 334 333 333 333 332 330 330
329 330 329 329 328 328 328 327 326 324 323 323 322 320 318 318 319 319 319 319 318 317 317 317 317 317 317 317 317 317 318 319 320 320 320 322 325 328 329 331 332 332 332 332 333 334 336 336 338 340 342 342 342 343 345 346 345 344 344 343 342 339 337 336 335 334 334 333 333 334 334 333 332 330
330 329 329 328 328 329 329 329 328 326 325 324 323 321 319 319 319 319 320 319 318 317 316 316 317 317 317 318 317 317 318 319 320 321 321 322 325 327 329 331 332 332 331 331 332 333 335 337 339 341 342 343 344 344 345 344 343 342 343 344 344 342 339 336 335 334 333 332 333 333 333 333 332 331
327 326 325 325 326 328 329 329 329 328 327 325 325 323 321 319 319 320 319 320 319 317 317 317 317 317 318 318 317 317 318 319 320 322 322 323 326 327 329 330 332 332 332 331 332 332 333 335 339 341 342 343 343 343 343 342 341 342 343 344 345 344 341 337 334 333 333 332 333 333 333 333 332 331
325 324 323 324 325 328 329 330 330 329 328 326 326 326 324 322 320 320 319 319 319 318 318 317 317 318 319 318 317 317 318 319 320 322 322 323 326 328 329 331 332 332 332 332 332 333 331 333 335 339 341 341 341 340 340 340 341 342 343 344 344 344 342 337 333 333 333 333 333 333 334 334 333 332
325 325 324 323 324 326 328 330 330 329 328 327 326 326 325 325 324 322 321 319 319 319 319 318 318 319 319 318 317 317 317 319 320 321 322 323 325 328 330 332 333 333 332 332 332 332 332 331 333 335 338 339 340 339 339 340 340 341 342 343 343 343 341 336 333 334 333 333 333 333 334 335 335 335
327 324 321 320 321 323 325 327 327 328 327 327 326 326 326 326 326 325 324 321 319 319 319 319 319 319 318 317 317 317 317 318 320 320 322 322 324 326 329 332 334 334 333 333 332 333 332 331 332 333 334 335 337 338 339 340 340 341 342 342 342 342 340 335 333 333 333 333 334 333 334 335 336 336
325 322 321 320 320 321 323 324 326 327 326 326 327 326 326 326 326 326 326 324 321 320 320 320 320 319 318 317 317 316 316 317 318 320 321 322 323 324 327 330 333 335 335 334 334 333 332 332 332 332 332 334 335 336 338 339 339 340 340 340 341 341 339 335 334 334 334 334 335 335 335 335 336 336
324 323 323 323 322 322 322 323 325 326 326 327 327 326 326 326 326 326 326 325 323 322 321 320 319 318 317 318 318 317 316 316 317 318 320 322 323 323 325 327 330 333 335 335 335 335 333 332 332 331 330 332 336 337 336 337 337 338 338 338 339 341 340 337 336 335 335 336 336 336 337 336 336 336
325 325 325 325 324 323 323 323 324 325 325 326 326 325 325 325 325 325 325 324 323 323 322 321 319 317 317 318 318 318 318 317 317 318 320 321 322 323 324 325 329 332 334 335 336 335 334 332 331 329 328 329 333 336 336 336 337 337 337 336 337 340 341 340 338 337 336 336 336 337 337 337 336 335
326 326 325 325 325 324 323 322 322 323 323 324 324 324 324 323 323 323 323 322 322 323 323 320 318 317 318 318 319 319 318 317 318 319 320 321 322 323 323 324 327 330 333 334 335 335 335 333 332 331 330 330 332 334 335 337 339 338 338 337 337 339 341 341 339 338 337 336 337 336 337 337 336 336
326 325 325 325 325 324 323 321 321 322 322 322 322 322 322 321 321 321 320 320 321 322 322 319 318 318 318 319 320 319 318 317 318 319 320 321 322 322 323 324 326 329 331 333 335 335 335 335 334 334 333 333 334 334 334 337 340 339 338 338 337 338 340 341 340 338 336 336 336 336 337 337 336 336
324 324 324 324 324 324 323 322 322 322 322 321 321 321 320 320 319 320 320 320 322 322 321 319 318 318 319 319 320 318 317 317 318 319 320 321 322 322 323 323 325 327 329 331 334 335 335 336 336 335 335 335 336 335 335 338 339 338 337 338 338 338 340 340 339 338 336 336 336 336 336 336 336 336
324 323 323 323 323 324 324 323 322 322 322 322 321 320 320 319 318 318 318 319 320 321 321 320 319 319 320 320 319 317 316 317 319 320 320 321 321 322 323 323 324 325 326 328 332 334 335 335 335 335 335 337 337 335 334 336 338 338 337 336 337 339 340 340 339 338 336 336 336 336 336 337 336 336
325 322 321 322 323 323 324 323 322 322 322 322 321 320 319 318 317 316 316 318 319 320 320 321 321 321 321 319 317 316 316 318 319 320 321 321 322 322 323 323 324 324 324 326 330 333 335 335 335 335 335 336 338 337 335 334 335 336 336 335 337 339 340 340 339 338 337 337 336 336 336 337 337 337
326 323 321 321 323 323 324 323 322 323 323 322 321 321 319 317 316 316 318 319 320 320 320 321 322 322 320 318 316 316 317 318 320 321 321 322 322 322 323 323 323 324 324 325 327 331 334 335 335 335 334 336 338 338 337 335 334 333 334 334 337 339 340 340 340 338 337 336 336 336 337 337 338 338
326 323 321 321 323 323 323 323 323 324 323 322 322 321 319 317 316 318 320 320 320 320 321 321 321 320 318 317 316 316 318 319 320 321 321 322 322 322 323 323 323 324 324 324 327 331 334 335 336 335 335 336 337 338 337 337 335 334 334 335 337 338 340 340 339 338 336 336 336 337 337 337 337 337
325 322 320 321 322 323 323 323 323 324 323 322 321 321 318 317 318 320 321 320 320 320 319 319 319 319 317 316 316 317 318 319 320 321 321 322 323 323 323 324 324 324 324 325 328 332 334 336 336 336 335 336 337 337 337 336 336 336 336 337 337 338 338 339 338 337 336 336 337 336 335 335 336 336
322 320 320 320 321 321 322 322 323 323 323 322 321 320 318 318 320 321 321 320 320 319 318 318 319 319 317 316 316 317 318 319 320 321 322 323 323 323 324 324 324 323 324 325 329 332 334 336 336 336 337 337 336 336 336 336 337 337 337 337 337 337 337 338 338 337 337 337 336 335 335 335 336 336
320 320 320 320 320 320 321 322 323 323 322 321 321 320 319 320 321 321 320 320 320 319 318 319 319 318 316 316 316 316 318 320 321 321 322 323 324 325 325 325 324 324 324 325 328 331 334 336 336 337 338 338 337 336 337 337 337 337 338 337 337 336 336 337 338 337 337 337 336 336 335 336 336 337
320 320 320 320 320 320 321 322 322 322 321 321 320 320 321 321 321 320 320 320 321 320 320 320 319 316 315 315 315 316 318 321 321 321 322 324 325 327 326 325 325 324 325 326 328 331 334 336 337 337 338 338 337 337 338 338 337 336 337 338 337 336 336 336 337 338 337 337 337 337 337 337 337 337
320 320 320 320 320 320 321 321 322 322 321 321 320 321 322 321 320 320 320 321 321 321 321 320 318 316 315 315 315 316 318 321 322 322 323 325 327 328 327 326 326 325 325 327 330 332 334 336 337 338 338 338 338 339 339 339 337 336 337 337 338 337 336 336 337 338 337 337 336 337 337 337 337 337
320 320 319 319 320 321 322 322 322 322 321 321 322 322 322 320 320 320 320 321 321 321 321 320 318 316 316 315 315 316 317 320 321 321 324 327 329 329 329 328 328 327 324 327 330 333 335 336 337 337 338 338 338 339 340 340 338 337 337 338 339 338 338 337 337 337 337 336 336 336 336 337 338 338
318 318 318 318 320 321 321 321 322 322 322 322 322 322 321 320 320 320 320 321 321 321 321 320 318 316 316 315 315 315 317 319 321 321 324 330 331 329 328 328 328 327 324 326 329 332 335 337 337 337 337 337 338 339 340 340 338 336 337 339 339 339 338 337 337 338 338 337 336 336 337 338 339 339
316 317 318 319 319 320 321 321 322 322 322 322 322 321 320 320 320 320 321 321 321 321 322 321 318 317 316 315 315 315 316 319 321 320 324 330 332 330 329 329 328 327 326 326 330 333 335 337 338 338 338 338 338 340 340 339 337 337 338 339 339 338 338 338 338 338 338 338 337 337 338 338 339 340
316 317 318 319 320 320 321 321 322 322 322 321 321 320 320 320 320 320 320 321 320 321 321 321 319 317 317 316 315 315 316 319 321 320 321 327 330 329 329 328 328 328 327 327 331 335 337 337 338 338 338 338 339 339 339 339 338 338 339 339 339 339 338 338 338 338 338 337 337 337 337 338 338 338
315 317 319 320 321 321 322 322 322 322 321 321 320 320 320 320 320 320 320 320 320 320 321 321 320 318 317 316 316 315 315 318 321 320 319 322 327 329 328 327 327 328 327 327 331 336 337 337 337 337 338 339 339 339 340 339 339 339 338 339 339 339 339 338 338 338 338 338 337 337 337 338 338 338
315 318 320 321 322 322 322 322 322 321 320 319 319 319 319 319 319 319 318 318 319 319 319 320 320 319 318 317 317 316 315 316 320 321 319 319 323 327 328 326 326 327 327 327 330 334 337 337 338 338 339 340 339 339 339 339 339 339 339 339 340 340 339 339 338 338 338 337 337 338 338 338 338 338
314 317 320 321 321 321 321 321 320 319 319 318 319 318 319 318 318 317 317 317 318 318 318 319 320 320 319 318 317 316 316 315 317 321 320 318 319 323 326 326 327 328 329 329 331 335 337 337 337 338 339 339 339 339 339 339 338 339 339 340 340 340 340 340 339 338 338 337 337 338 339 339 339 339
313 316 319 320 320 320 320 319 319 318 318 318 318 318 318 317 317 316 316 316 316 317 317 317 319 320 320 319 318 317 316 315 316 319 320 318 317 319 322 324 326 328 330 331 333 335 336 337 337 337 337 338 338 339 339 338 338 338 339 339 339 339 340 340 340 340 340 339 339 339 340 340 340 340
314 317 319 319 319 319 319 318 318 318 318 318 317 317 317 316 316 315 315 315 315 315 315 316 317 319 320 320 320 318 317 316 316 317 319 318 317 318 319 320 322 325 328 331 334 335 336 336 336 337 337 337 338 339 338 338 338 338 339 339 340 340 340 341 341 341 341 341 341 341 341 341 341 341
313 316 318 319 318 318 318 317 317 317 317 317 317 316 315 315 314 314 313 313 311 312 312 314 316 318 319 320 321 319 319 319 317 317 317 317 317 317 318 318 319 321 324 327 330 333 336 336 336 336 337 338 338 339 338 338 338 338 339 340 341 340 341 342 342 342 342 342 342 342 341 342 343 343
313 316 318 318 318 318 317 317 316 316 316 315 315 314 313 313 312 312 310 309 308 308 309 312 315 317 318 319 321 320 320 321 320 319 319 317 316 316 317 318 318 319 321 323 326 329 333 335 335 335 336 337 338 338 338 338 337 337 338 339 339 339 339 340 341 342 342 342 342 342 342 342 342 343
315 317 317 317 317 317 317 316 315 315 315 314 312 311 310 310 310 309 308 307 307 306 307 309 313 316 317 318 319 320 320 320 321 322 321 319 316 315 316 317 318 318 319 321 323 326 330 332 334 335 336 336 337 338 338 337 336 336 335 337 337 337 337 337 338 338 339 340 341 341 342 342 342 342
316 316 316 316 316 316 315 315 313 313 312 311 310 309 309 308 308 308 307 307 306 306 306 307 309 312 315 317 318 319 319 319 320 321 321 320 318 316 315 316 317 317 318 319 321 324 325 328 331 334 336 337 338 338 337 336 335 335 335 335 336 337 336 337 338 338 337 338 338 339 339 340 340 342
315 316 316 315 315 314 312 311 311 310 310 309 309 308 308 307 307 307 307 306 306 305 305 305 306 308 311 314 315 316 318 318 319 320 321 321 320 318 316 315 316 317 317 318 319 322 324 324 326 329 331 334 336 337 337 335 334 333 334 335 335 335 335 337 337 337 336 336 336 337 337 337 339 341
314 315 314 313 312 311 310 309 309 309 308 308 308 307 307 306 306 305 305 305 304 303 303 304 304 305 307 310 312 314 316 317 318 318 320 321 321 320 318 316 315 316 317 317 318 320 322 323 323 323 324 326 328 329 332 333 331 331 332 334 334 335 336 336 337 337 337 337 337 338 337 338 339 341
313 313 312 311 310 309 308 308 308 307 306 306 306 306 306 305 304 303 302 301 301 301 302 303 303 304 305 306 308 310 313 315 316 317 319 321 322 321 320 319 317 315 316 317 317 318 319 321 322 322 322 322 322 323 325 327 327 328 329 331 333 335 337 338 338 339 340 340 340 340 340 340 340 341
312 311 310 309 308 308 307 307 307 306 305 304 304 303 303 303 302 301 300 299 299 300 301 301 301 302 303 304 305 307 309 311 313 316 318 320 321 321 322 321 320 318 316 316 317 316 317 319 320 321 321 322 321 321 322 321 322 323 325 327 329 332 334 336 337 338 339 340 339 339 340 340 340 341
311 310 309 309 308 308 307 307 306 305 303 302 301 301 300 300 299 298 298 298 298 299 300 300 300 301 301 302 304 305 306 306 309 312 316 318 320 321 321 321 322 321 320 319 318 317 315 316 318 319 320 320 320 319 319 319 319 320 322 323 325 326 328 330 331 332 333 335 335 336 337 338 338 338
310 310 309 309 309 308 307 306 304 303 302 301 300 299 298 297 297 296 296 296 297 298 299 299 299 299 300 301 303 303 304 304 305 308 312 316 318 320 320 320 321 321 322 321 321 319 316 316 316 317 317 318 318 317 317 317 318 319 320 321 322 322 323 324 326 327 328 329 329 330 331 333 335 336
308 308 308 308 307 307 307 306 304 302 300 299 297 296 295 295 294 294 294 295 296 297 298 297 297 297 298 299 302 302 302 302 303 305 308 312 316 318 320 320 320 320 321 322 322 321 319 318 318 317 316 316 316 317 317 317 317 317 318 319 319 320 320 321 322 323 323 324 324 325 326 328 332 334
Wind_Speed
10 10 11 11 10 9 10 12 12 12 13 12 12 13 14 16 18 21 24 28 27 27 29 31 32 33 33 33 33 32 31 30 30 30 31 33 33 33 33 32 31 32 33 34 36 37 38 39 41 42 43 43 42 41 39 39 38 38 37 36 36 36 37 38 37 37 36 35 34 33 32 32 31 31
11 11 12 12 12 12 12 13 13 13 14 14 14 14 14 15 17 19 23 27 28 29 30 31 33 35 35 36 36 35 34 33 32 31 32 34 36 36 35 33 32 32 32 32 33 35 37 38 39 41 43 44 43 42 41 40 40 40 38 37 37 38 38 38 38 37 36 35 35 34 33 32 31 31
12 12 13 13 14 14 14 14 14 14 15 15 15 15 15 15 17 19 21 26 30 30 31 31 32 35 36 37 38 38 37 36 34 32 32 33 35 36 36 35 33 32 32 32 32 33 35 37 38 39 41 43 43 42 42 41 41 40 39 37 37 38 39 39 39 38 37 37 36 35 34 33 32 31
14 14 15 15 16 16 16 16 15 15 16 17 16 17 16 15 17 19 20 25 31 31 30 31 32 34 37 38 39 40 39 38 35 33 32 32 33 35 37 37 37 36 35 34 33 33 34 35 37 38 39 42 43 42 41 40 39 39 38 37 37 38 39 40 40 39 38 38 37 36 35 34 33 31
15 16 17 18 17 18 18 18 17 16 17 18 18 18 18 17 18 20 21 25 31 33 30 30 32 33 37 40 40 40 41 39 37 34 32 32 32 34 36 37 38 39 38 37 35 33 33 34 36 37 38 40 43 43 41 39 38 38 37 37 37 38 39 40 40 40 39 38 37 37 36 35 34 33
16 17 18 19 19 19 20 20 19 17 17 19 20 19 20 20 19 19 22 25 29 32 31 31 32 34 37 41 42 41 40 40 38 35 32 32 32 32 34 36 37 39 38 38 37 35 33 33 34 37 39 40 42 43 42 40 38 38 38 38 38 39 40 40 40 39 39 38 37 37 36 36 35 34
16 18 19 19 19 19 21 21 21 20 19 20 22 22 22 21 20 20 22 24 27 31 32 32 33 35 38 42 44 42 40 40 39 36 33 32 32 31 32 34 36 37 37 37 38 37 35 33 33 36 39 41 42 42 42 40 39 38 38 39 40 40 40 40 40 38 38 37 37 36 36 36 36 35
16 17 18 18 18 19 21 23 22 22 21 21 23 24 24 23 22 21 22 24 26 29 33 33 33 36 38 41 44 43 41 40 40 38 35 33 33 31 31 32 35 36 37 37 37 38 38 36 35 35 38 41 42 43 43 41 39 39 39 40 41 41 41 41 40 38 37 36 36 36 35 35 35 35
16 16 18 18 18 19 22 23 23 23 23 23 23 24 25 25 24 24 23 24 26 29 32 34 35 36 37 40 43 42 40 41 41 40 37 34 33 32 31 32 33 34 35 36 37 38 39 39 38 36 37 39 42 43 44 42 41 41 41 41 41 42 43 42 40 38 37 37 36 36 36 35 35 35
16 16 16 16 16 18 20 21 22 22 23 23 24 25 25 26 27 27 26 25 27 29 31 34 36 36 36 40 44 43 41 42 42 41 40 36 32 31 31 31 32 33 34 35 37 38 40 41 40 39 38 39 40 42 43 42 42 42 42 42 42 42 43 42 41 39 38 38 37 37 36 36 36 35
17 16 15 15 16 16 17 18 19 20 22 23 25 26 26 27 29 31 29 27 28 29 31 33 35 35 36 39 43 45 44 44 43 41 41 40 36 33 32 31 31 32 33 34 35 37 39 41 41 40 38 38 39 40 41 41 42 42 42 43 42 42 43 43 41 40 39 38 38 37 37 36 36 35
17 16 16 17 17 17 18 18 19 19 21 23 25 26 27 28 31 32 31 29 29 30 31 33 33 34 37 40 43 45 46 46 46 43 41 42 41 38 35 33 31 30 31 34 35 35 37 40 42 42 40 39 39 39 39 40 41 43 43 43 43 43 43 43 42 41 40 39 38 37 36 36 35 35
19 19 19 19 18 18 18 18 19 18 19 21 24 26 26 27 29 31 31 30 30 30 31 32 32 34 37 40 42 45 46 47 48 46 43 43 42 41 40 37 33 30 30 33 35 35 36 39 41 42 42 41 41 41 41 40 41 43 44 44 44 44 44 43 42 41 40 39 38 37 36 34 34 34
21 21 21 21 20 19 17 17 18 18 18 20 22 23 23 24 26 27 28 29 29 29 30 31 31 34 37 39 41 44 47 48 48 46 45 44 43 41 42 40 36 31 29 31 35 36 35 36 39 41 41 41 41 42 43 42 41 42 42 43 44 45 45 43 42 41 41 39 38 37 35 34 33 33
21 22 23 23 21 19 17 17 18 18 18 18 19 20 20 22 23 24 26 27 28 29 31 30 30 34 38 40 42 45 49 49 48 46 45 45 43 41 41 41 38 33 27 28 33 36 35 35 37 39 40 40 40 41 42 42 39 37 36 37 41 44 45 44 43 41 40 39 38 37 35 34 33 33
21 22 23 23 23 21 18 18 18 18 18 18 18 19 19 20 21 22 24 26 28 30 30 30 32 35 39 41 43 46 49 49 49 48 46 44 44 42 40 42 41 35 28 28 31 34 36 36 37 39 39 38 38 39 41 41 38 35 32 32 36 41 43 44 43 42 40 38 37 37 36 35 34 34
20 21 22 23 23 22 19 18 18 18 18 19 20 20 20 21 21 22 24 25 27 28 29 31 34 37 40 42 43 46 48 49 49 48 47 45 44 43 42 43 43 36 30 30 32 33 34 35 37 39 38 37 36 37 40 41 39 36 32 31 33 37 41 42 42 41 40 38 37 36 36 36 35 34
21 22 22 22 22 21 19 17 17 18 19 21 22 22 21 22 23 24 24 25 26 26 27 31 34 37 39 40 43 46 47 47 47 47 48 47 46 46 43 43 44 39 33 33 34 33 33 33 35 37 36 35 35 35 37 39 40 39 35 33 33 35 39 41 41 40 39 37 36 36 36 35 34 33
22 23 23 21 20 19 17 16 16 18 20 22 23 23 23 23 24 25 24 24 26 27 28 30 32 35 36 38 44 47 46 45 46 45 46 46 46 46 43 42 45 43 36 34 35 35 34 33 34 35 34 33 33 33 33 35 37 39 37 35 34 36 38 38 39 38 37 36 36 35 35 34 33 33
24 24 22 20 19 18 18 16 15 17 20 22 24 24 25 26 26 24 23 24 26 28 28 28 30 31 34 39 45 45 44 45 46 45 45 44 44 43 40 41 45 44 38 35 36 36 34 32 33 33 32 32 32 31 30 31 33 36 36 35 35 36 37 37 37 36 35 35 35 34 34 33 33 33
24 23 20 19 19 19 18 16 14 16 19 22 24 25 26 27 26 24 24 24 26 25 25 26 29 31 35 42 44 43 45 48 48 46 45 42 40 40 39 40 43 44 40 35 35 36 35 32 31 33 32 31 31 30 29 29 30 32 33 34 35 35 36 36 35 34 34 33 33 33 33 33 33 32
22 20 18 17 17 18 17 15 14 16 19 21 23 25 27 27 26 25 24 25 25 23 24 27 30 32 37 43 44 45 49 52 48 44 42 38 36 38 40 41 42 42 39 35 33 35 35 32 31 32 32 31 31 30 29 28 28 29 30 32 33 35 35 34 34 33 33 32 32 31 32 32 32 33
19 18 17 16 16 16 15 15 15 16 19 21 23 25 27 27 26 25 24 25 25 25 27 30 31 34 40 44 45 49 53 54 49 43 39 35 33 35 39 41 40 39 37 34 33 35 34 31 32 32 31 30 30 30 29 28 28 27 28 29 31 33 34 33 33 33 33 32 31 31 31 32 32 33
18 17 17 17 17 16 15 15 16 17 19 21 23 25 26 27 27 26 25 25 26 27 29 30 31 35 42 45 47 52 56 56 51 46 39 31 27 32 40 42 41 40 37 31 31 35 33 30 31 32 31 29 28 28 28 29 28 27 27 28 29 30 32 32 33 34 33 32 31 30 31 32 32 34
18 18 19 18 17 16 15 15 16 17 19 21 22 24 25 26 27 26 26 26 25 26 28 29 30 35 41 45 49 53 58 58 54 49 39 23 21 29 38 42 42 42 38 30 28 31 32 31 30 30 30 30 29 28 27 26 26 27 27 27 28 29 30 32 33 34 34 33 32 32 32 33 33 34
18 20 20 18 16 15 15 15 16 17 19 20 21 23 24 26 26 25 25 26 25 25 27 28 29 33 39 45 49 53 58 59 55 51 37 17 20 26 31 35 37 40 38 32 29 29 28 29 30 29 30 30 30 30 29 27 25 24 24 25 27 28 29 31 32 33 34 33 33 32 33 33 34 34
19 19 18 17 15 16 16 16 16 17 18 19 20 22 23 24 23 23 23 24 23 25 26 26 27 31 36 43 48 52 57 59 56 51 35 12 15 18 24 29 31 35 36 32 30 30 28 26 27 28 28 29 29 30 31 30 27 25 24 23 24 26 28 29 31 32 33 33 32 32 32 33 34 34
18 18 17 15 15 16 16 16 16 17 17 18 20 21 21 21 21 20 21 21 22 24 25 25 25 28 32 39 46 50 54 55 54 51 35 10 7 8 13 20 24 29 34 32 28 28 29 26 25 25 26 27 29 30 30 29 27 26 25 24 23 24 25 27 29 31 31 32 32 32 33 33 34 35
18 17 16 15 14 15 15 15 16 17 17 19 20 19 18 17 17 17 18 19 20 23 24 24 24 26 29 34 42 46 50 52 52 51 40 19 4 5 6 11 18 24 30 32 28 24 26 27 27 25 25 25 27 28 27 26 25 25 24 24 23 23 22 23 26 28 30 31 33 33 33 33 33 34
17 16 15 14 13 13 14 15 17 18 19 20 18 15 14 14 15 16 18 20 21 23 24 24 23 24 25 30 37 41 45 49 50 49 48 35 13 4 7 7 13 20 24 30 31 25 22 25 26 26 25 25 25 25 24 23 23 23 23 24 24 23 22 22 23 25 28 30 31 32 32 32 33 34
15 14 13 13 13 13 14 16 17 18 18 15 12 11 12 14 16 17 19 21 21 23 25 25 24 23 24 26 33 38 40 44 48 47 48 46 30 11 4 4 6 12 16 23 30 27 22 23 25 26 25 24 24 23 22 21 22 22 23 25 26 25 24 24 24 24 25 26 27 29 31 32 34 34
14 13 12 12 13 13 14 15 15 13 11 9 9 11 14 15 17 18 19 19 20 22 24 25 25 24 24 24 28 35 36 39 44 45 44 47 44 29 15 9 3 6 13 21 26 26 23 22 23 23 23 22 22 22 22 21 22 22 22 24 25 26 25 25 25 25 24 24 25 27 29 31 33 34
13 13 12 11 11 11 10 9 8 7 7 9 12 14 15 16 17 18 19 19 20 21 23 25 26 26 26 24 24 29 33 35 40 44 43 44 48 42 32 24 15 3 9 16 21 23 22 21 21 21 20 21 21 21 20 21 21 21 22 24 25 26 26 25 25 25 24 24 25 26 27 29 31 32
11 10 10 9 8 7 5 5 5 7 10 14 15 15 16 16 17 18 18 19 20 21 23 25 25 25 25 24 22 24 28 32 37 41 42 43 46 46 43 39 32 19 5 7 16 20 19 20 21 21 20 20 22 22 21 21 20 19 20 22 23 24 25 25 24 24 23 23 24 24 25 27 28 30
9 9 7 7 5 4 5 7 9 11 14 15 15 14 15 15 16 17 18 19 20 22 22 23 24 23 23 23 22 21 23 27 32 35 38 41 43 44 44 43 41 34 23 9 7 17 20 20 22 24 23 23 26 26 23 22 22 19 17 18 19 19 20 22 22 23 24 23 23 23 23 24 26 27
9 8 7 6 5 6 7 10 11 12 13 13 13 13 13 14 15 16 18 19 20 22 22 22 23 22 22 22 22 21 22 25 28 30 32 36 40 43 42 42 41 40 35 27 13 4 17 21 23 27 28 26 28 29 26 24 24 23 20 19 18 17 16 17 19 21 23 23 24 24 24 24 25 25
9 8 7 6 7 8 9 10 10 10 11 11 12 12 13 13 15 16 17 19 20 21 21 21 21 21 21 22 21 21 22 24 26 27 28 31 35 39 42 41 41 41 40 37 30 16 3 12 20 27 31 29 26 27 26 24 25 26 25 23 22 20 18 17 19 21 23 24 25 25 25 25 25 25
8 8 8 8 8 8 8 8 8 9 9 10 11 12 12 13 15 16 18 19 21 21 21 20 20 20 20 21 22 22 22 23 24 25 25 26 29 34 38 39 40 41 41 40 38 32 22 10 7 17 28 32 30 27 25 22 21 23 27 27 24 23 21 21 22 24 25 26 27 27 26 26 25 25
7 8 8 7 6 6 6 7 7 8 9 10 11 12 14 15 17 18 20 21 21 21 21 20 19 19 19 20 21 22 22 22 24 24 24 24 25 27 31 35 37 38 40 41 41 38 33 26 18 10 7 19 26 27 28 24 16 14 22 26 25 25 24 23 25 26 26 27 28 29 29 29 27 27
8 8 7 6 6 6 6 6 7 8 9 10 11 13 16 17 19 20 21 21 20 20 20 19 19 19 18 19 20 21 21 21 22 23 23 22 22 23 24 28 32 35 37 39 40 39 37 32 27 23 17 11 11 14 20 22 15 10 13 18 19 20 20 20 22 25 27 29 30 30 31 31 30 30
8 8 7 7 7 7 7 7 8 10 11 12 13 14 16 18 19 20 20 19 18 18 17 17 18 18 18 18 19 20 20 21 21 22 22 21 21 21 20 21 25 30 33 35 36 36 35 32 27 24 22 20 22 23 20 18 16 12 8 6 5 9 11 14 19 22 25 27 29 30 32 33 33 33
8 8 7 7 8 8 8 9 10 11 13 14 15 16 16 17 18 18 17 16 15 15 15 15 16 16 16 16 17 18 19 20 20 20 21 21 20 20 21 20 21 23 27 28 29 30 31 29 27 27 27 27 30 33 32 29 28 26 24 20 15 10 7 6 10 14 16 19 22 25 28 30 32 35
9 8 8 8 9 11 11 11 11 13 14 16 16 16 16 15 14 14 13 13 13 13 14 14 14 14 15 15 16 16 17 18 19 19 19 20 19 19 20 20 19 18 19 19 20 23 26 27 27 27 27 28 30 32 32 31 31 32 32 31 29 26 23 18 14 9 4 4 7 12 19 24 27 29
10 10 9 10 11 12 11 12 13 14 15 15 15 14 13 12 12 12 11 11 12 13 13 14 14 14 14 14 15 15 16 17 17 17 17 17 17 17 17 18 18 18 16 15 14 16 20 23 24 26 27 27 28 29 29 28 28 29 30 31 32 32 31 29 27 26 24 22 19 14 4 12 23 27
10 10 10 11 12 12 12 13 14 14 13 13 11 10 10 9 10 10 10 10 11 12 13 13 13 13 13 14 15 15 16 16 16 16 15 15 15 14 15 16 17 17 17 15 13 13 15 16 18 20 23 25 26 27 27 28 28 28 28 28 28 28 29 29 29 31 32 33 32 32 27 13 6 17
Wind_Direction
273 279 287 294 296 298 302 306 307 301 298 304 313 324 333 337 338 334 330 331 334 338 340 337 336 338 337 333 329 323 315 304 295 286 277 269 263 260 257 255 255 256 257 258 259 258 256 254 253 251 248 244 242 241 241 242 242 241 241 243 244 244 245 247 248 250 251 252 252 252 252 253 253 254
274 277 281 286 289 292 297 301 303 299 293 295 303 314 324 331 335 333 326 324 328 333 335 334 334 336 337 335 332 328 322 314 304 293 284 273 266 263 260 255 253 253 253 255 257 257 255 254 253 252 248 244 241 240 241 242 243 241 240 241 243 244 245 246 247 248 250 252 253 253 253 253 253 254
277 278 281 285 288 288 289 293 297 296 290 290 296 305 315 322 327 330 326 319 321 329 332 331 333 336 336 335 333 330 326 321 312 300 290 279 269 265 262 256 251 250 250 251 253 255 255 253 252 250 246 242 241 240 240 241 242 243 242 240 241 243 244 245 246 247 248 250 252 254 254 253 253 253
280 282 285 288 289 289 288 289 292 290 287 288 292 297 305 314 320 324 323 317 318 324 329 330 333 336 336 334 333 330 326 322 316 304 293 285 273 265 262 259 253 250 249 249 250 252 254 253 250 246 243 241 239 237 237 238 240 243 244 244 243 243 244 245 246 247 248 249 250 252 253 253 253 251
283 284 287 287 288 290 290 290 289 287 284 284 287 292 297 304 315 320 320 318 318 321 325 329 332 336 336 335 335 331 325 322 319 308 295 288 279 266 261 260 257 253 251 249 248 249 251 253 249 243 240 240 237 234 235 237 239 242 245 247 247 246 245 244 245 247 248 249 249 250 251 252 252 251
283 284 284 285 286 289 290 290 290 289 287 286 285 286 290 298 310 317 318 317 316 317 322 326 330 334 336 335 335 332 326 323 321 313 300 291 283 270 260 259 258 255 252 249 246 246 248 250 249 243 239 238 236 234 236 237 239 241 244 246 248 247 246 245 245 246 248 249 249 250 250 251 251 251
282 283 283 283 285 286 287 289 291 293 294 293 289 286 286 293 306 315 315 313 312 313 317 323 328 331 334 334 334 332 328 325 324 318 307 296 288 275 264 261 259 255 252 248 245 245 245 246 246 243 239 237 237 237 238 238 239 241 244 246 247 246 246 245 245 245 246 247 248 249 250 250 250 251
281 282 283 285 286 285 285 288 291 294 295 296 295 290 286 288 300 310 311 308 308 308 311 318 324 328 330 333 335 335 331 328 326 322 314 305 296 283 269 265 262 256 252 249 246 244 244 244 244 242 240 239 239 240 241 240 240 243 246 247 246 245 245 244 243 242 242 244 246 248 250 250 250 251
280 282 285 288 289 286 284 286 288 291 293 295 296 294 291 290 293 301 306 306 304 303 307 313 319 323 326 330 335 338 334 330 328 325 319 310 302 292 278 269 265 259 253 249 247 245 243 242 241 240 239 239 239 241 242 242 242 243 245 245 246 245 243 242 241 241 241 243 246 248 250 251 251 251
280 282 285 289 290 286 285 286 287 288 290 293 296 296 297 296 293 293 298 302 302 302 305 311 314 318 323 327 332 337 335 329 327 327 323 315 306 298 287 275 268 264 257 251 248 246 243 240 239 239 239 239 240 240 242 242 242 242 242 243 244 243 240 239 239 240 242 244 246 248 249 251 251 251
280 280 284 290 292 292 291 289 287 288 291 293 295 296 297 297 295 293 294 297 300 301 306 310 312 315 320 324 328 333 334 329 325 325 322 316 308 300 291 282 272 265 261 255 250 247 245 242 240 240 240 240 240 240 241 242 241 240 240 241 241 240 238 237 238 239 241 243 245 247 248 249 250 250
280 279 284 290 295 299 299 294 289 289 292 293 294 296 298 297 297 296 296 299 300 300 304 308 310 314 318 321 325 330 332 328 324 323 319 313 309 303 293 285 276 267 262 258 254 250 247 244 242 241 240 239 238 238 239 240 241 240 240 239 239 238 236 236 237 239 240 242 244 246 247 248 249 249
282 280 284 289 294 299 302 301 296 292 293 294 294 297 300 299 298 298 299 300 301 300 302 306 309 313 316 320 324 326 327 324 321 320 316 311 309 305 296 286 274 267 263 258 254 252 248 245 243 241 240 239 237 237 237 238 240 239 238 239 238 235 234 235 237 238 239 242 244 245 245 246 247 246
287 284 285 287 290 295 301 303 301 299 299 298 295 295 297 297 296 296 296 298 300 300 302 305 308 311 313 318 322 321 321 321 318 316 313 309 307 304 298 288 274 265 264 260 255 250 247 246 243 240 240 240 239 238 238 237 238 237 237 237 236 234 233 234 236 237 239 241 243 243 243 244 244 244
290 287 287 287 286 288 296 302 304 305 306 303 297 293 293 293 294 295 296 299 301 302 302 303 304 307 311 316 319 318 318 318 315 312 310 306 302 298 293 288 276 264 262 263 258 251 247 246 246 243 240 240 240 239 237 235 235 235 237 238 237 234 233 234 236 237 238 240 241 241 241 242 242 242
295 292 291 289 284 282 289 299 304 307 308 306 302 298 296 296 297 297 299 301 301 302 302 299 299 304 308 312 314 316 317 316 312 310 307 303 298 292 286 283 276 267 263 266 265 257 249 246 248 246 242 241 241 239 236 234 232 233 238 241 238 234 232 233 235 236 238 240 239 239 240 241 242 242
303 301 297 291 284 280 282 292 301 305 307 308 308 305 301 299 299 299 300 301 302 303 300 295 296 301 304 307 312 317 318 315 311 309 305 301 296 289 281 277 273 267 262 266 268 262 253 248 248 248 244 242 243 240 237 234 233 234 238 242 241 235 232 233 234 236 238 239 239 239 240 242 242 242
304 307 303 295 288 282 279 285 296 300 305 310 311 309 305 301 300 301 302 304 305 305 303 298 298 302 303 307 314 318 318 315 311 307 303 298 293 286 280 275 271 264 257 259 263 262 256 250 248 247 244 243 244 242 239 236 235 237 240 241 240 236 233 233 234 236 237 238 238 238 239 241 241 239
298 305 303 295 288 283 279 283 291 295 300 307 311 310 307 305 304 306 308 309 308 308 307 304 303 304 306 311 317 319 318 316 313 308 302 296 291 285 278 271 267 261 251 249 253 257 257 252 248 246 243 243 244 244 242 239 236 237 238 238 237 236 234 234 234 235 236 236 237 238 238 239 237 235
294 302 301 292 284 282 282 286 289 289 295 303 308 309 309 309 310 312 313 312 310 310 308 306 305 305 308 314 319 321 321 320 317 311 302 295 289 283 272 263 262 258 248 241 243 249 253 250 246 244 243 242 244 245 244 240 237 235 234 234 235 234 234 234 233 233 234 235 235 236 237 236 234 233
294 301 300 293 286 284 286 289 286 285 292 300 305 309 311 312 314 316 315 313 313 311 309 308 305 305 313 320 323 324 325 325 321 312 302 294 286 276 264 254 254 254 247 236 234 240 246 245 242 243 244 244 244 245 245 242 237 235 233 233 233 232 232 233 233 232 232 233 234 234 234 233 231 230
295 298 298 296 292 290 290 287 282 284 292 299 304 309 312 313 315 318 317 316 315 313 312 311 308 311 322 329 329 328 329 330 326 315 305 297 282 268 256 248 247 251 247 234 227 234 240 239 238 240 243 245 246 246 245 242 237 234 232 232 231 231 231 231 231 231 230 230 231 232 231 230 228 226
295 295 296 297 296 294 290 283 280 285 291 298 305 309 310 312 317 319 319 319 318 316 315 314 314 323 333 336 334 333 334 334 331 323 314 301 279 258 247 241 239 243 242 230 223 230 236 236 236 236 236 241 245 245 243 238 235 233 233 232 231 229 229 229 229 228 227 227 229 230 229 228 226 225
296 297 297 296 296 294 287 281 281 286 293 300 306 309 310 314 318 319 320 322 320 317 317 315 319 331 340 341 338 339 340 339 336 331 323 305 272 247 238 234 232 234 234 227 224 228 231 233 235 234 233 236 240 242 241 236 235 235 234 234 232 229 228 228 227 226 225 225 227 228 229 228 227 226
297 298 296 294 294 292 286 283 283 289 297 303 305 307 310 314 317 318 320 321 319 317 317 315 321 335 344 344 343 343 345 344 341 338 331 304 257 241 235 232 231 231 228 223 223 227 229 230 233 233 233 235 237 240 241 238 236 237 238 238 237 233 229 228 227 225 225 226 227 229 230 230 229 229
296 296 297 297 296 291 286 286 289 295 301 301 302 307 310 313 314 315 317 318 317 317 317 316 324 339 347 348 348 347 347 348 348 346 339 299 242 239 237 233 233 230 224 217 218 225 227 229 232 232 230 232 234 236 237 236 235 237 240 241 239 235 232 229 227 226 226 227 228 230 231 233 233 232
299 299 301 300 296 291 289 293 297 298 298 298 302 307 308 310 312 313 315 317 317 317 317 318 329 342 348 352 352 349 348 352 354 352 347 306 238 239 238 235 234 230 223 218 218 224 227 229 232 232 230 231 232 231 231 233 235 238 240 239 237 235 232 230 228 228 228 228 229 230 231 233 234 234
302 302 302 299 294 293 294 298 298 295 295 298 303 306 306 308 311 313 318 322 321 322 321 321 330 341 347 354 356 352 350 354 357 358 358 340 251 256 244 237 236 230 223 219 218 224 229 231 232 234 234 233 232 229 227 228 232 236 238 237 236 234 231 230 228 227 227 229 229 230 230 232 232 234
303 302 302 299 296 295 295 296 294 293 296 301 303 305 306 309 314 319 327 332 332 332 331 326 330 338 345 355 358 354 353 357 360 3 10 14 323 295 286 248 238 234 226 216 212 221 231 232 233 236 236 232 230 229 229 230 231 234 236 238 239 237 233 231 230 230 229 230 230 230 231 232 233 235
299 300 300 297 294 292 291 292 292 295 300 302 302 304 307 313 321 328 333 336 337 338 338 334 332 333 338 350 357 356 357 1 3 8 16 23 22 306 307 283 243 240 232 216 211 219 230 235 238 238 234 230 227 226 229 234 236 237 238 239 239 238 236 233 232 232 232 232 232 233 234 235 236 238
291 291 289 287 287 288 289 292 294 297 299 298 298 306 314 321 329 334 335 336 337 339 341 340 337 333 333 343 356 0 2 4 7 12 19 25 31 41 12 340 264 245 233 214 212 221 231 236 239 236 230 228 229 225 224 231 237 240 241 242 242 242 240 237 235 235 235 236 236 236 237 238 239 240
284 283 282 281 285 288 289 292 293 292 291 293 303 315 321 325 330 332 332 333 335 337 340 341 341 339 335 339 354 5 9 9 9 14 20 25 31 44 61 57 40 228 218 212 218 229 236 236 236 232 226 227 230 227 225 230 237 240 241 241 243 245 245 242 240 239 239 239 239 239 239 240 240 240
284 287 287 285 286 287 287 287 285 278 285 305 317 321 323 326 328 329 331 334 337 339 341 343 345 343 341 342 351 3 13 17 14 14 20 26 30 36 44 47 43 49 214 220 228 235 237 234 232 229 224 225 229 230 231 234 237 239 242 243 243 244 244 243 242 240 238 238 239 240 241 241 241 241
291 293 293 290 286 282 278 280 286 293 305 314 318 318 321 324 327 330 335 339 343 346 345 345 347 346 345 348 354 0 10 18 19 16 18 25 29 32 35 37 37 36 31 238 236 235 234 232 234 234 231 231 231 230 231 235 238 241 244 244 243 243 244 242 239 237 236 237 240 243 245 245 244 243
298 293 292 293 281 263 271 287 294 300 307 310 311 313 319 325 329 335 341 345 348 351 351 349 349 349 349 353 360 4 6 13 19 18 16 21 26 29 31 32 32 33 35 29 248 237 233 230 231 232 229 227 226 224 224 230 234 235 235 234 233 237 240 239 237 234 233 235 239 242 244 245 244 242
297 288 287 287 269 261 281 294 296 299 303 306 310 318 325 330 335 340 346 349 350 351 353 353 351 353 355 355 359 6 10 12 17 20 20 21 24 27 29 30 31 31 33 36 37 237 226 224 225 228 228 224 218 215 216 223 228 230 230 231 230 232 233 234 236 237 236 236 238 239 241 243 243 242
292 282 279 278 271 271 282 291 292 296 302 309 317 325 329 334 339 343 345 347 348 349 351 354 354 356 359 359 358 3 11 16 19 23 27 28 27 26 27 28 29 30 31 33 38 49 153 210 215 219 222 220 213 207 208 216 226 232 235 235 234 237 239 240 241 241 239 239 240 239 242 246 247 244
281 276 277 279 281 282 288 295 299 303 311 318 321 326 331 334 338 340 340 342 344 345 347 349 352 355 360 3 4 4 9 17 21 23 28 33 33 30 26 25 26 29 30 31 35 44 54 74 165 199 207 211 211 209 210 213 222 233 238 238 236 239 243 245 245 244 244 243 243 244 246 249 249 247
275 275 276 278 284 290 296 303 307 307 312 318 320 325 330 332 333 334 335 336 338 340 342 344 348 352 357 3 8 9 11 17 21 23 26 33 38 38 33 29 27 27 29 31 33 38 47 54 58 67 168 200 205 210 213 210 205 221 238 241 241 241 242 243 245 248 249 248 246 246 248 249 249 249
274 272 271 272 280 288 292 298 305 309 314 320 323 325 327 329 329 328 329 330 330 333 336 340 343 347 351 358 5 9 13 17 21 24 27 31 39 45 44 38 33 30 30 32 33 35 41 47 50 51 58 92 132 158 181 184 173 184 227 240 245 245 244 245 246 247 248 248 245 243 243 244 243 244
268 267 269 272 279 287 293 301 311 318 321 323 327 327 326 327 326 325 326 327 329 330 334 338 343 346 350 357 3 6 10 16 19 22 26 30 35 43 46 44 41 39 35 33 33 35 39 44 50 55 63 76 84 91 106 119 115 112 131 163 209 231 235 238 238 237 238 237 234 233 236 239 239 238
262 264 269 274 281 288 298 309 318 323 325 327 329 330 329 326 325 325 327 329 331 334 337 342 347 350 353 0 7 7 10 15 18 21 26 29 32 38 42 42 45 48 45 39 36 35 38 42 48 53 59 68 74 75 76 78 79 82 89 95 101 114 136 188 223 232 237 234 227 225 228 231 232 232
264 271 275 281 289 294 303 315 323 325 328 330 331 331 330 329 328 332 336 337 338 342 346 349 353 356 1 10 16 15 14 17 18 20 26 29 32 37 41 42 44 49 51 50 47 42 40 41 45 49 53 59 63 66 68 69 71 75 79 83 87 91 94 97 101 105 123 204 225 230 230 226 224 224
275 283 286 289 294 298 308 320 326 327 328 330 330 331 332 335 339 344 348 350 349 349 351 355 360 4 11 21 26 25 23 22 21 21 26 30 33 37 41 42 42 44 47 52 56 55 51 47 46 48 52 55 57 59 60 61 64 68 73 76 77 79 82 85 87 87 83 75 66 53 8 243 228 221
284 291 293 293 296 301 311 320 324 326 328 328 329 334 340 346 352 356 359 1 359 354 354 0 6 11 19 28 32 30 28 27 25 25 27 30 32 35 39 40 40 39 42 46 52 63 67 63 55 52 53 54 54 54 56 60 62 63 67 70 70 70 72 74 76 77 75 71 68 63 57 51 215 214